Weather History for Altus AFB, OK

Change the Weather History Date:

Tuesday, November 15, 2011

  Actual Average Record
Temperature  
Mean Temperature 57 °F -  
Max Temperature 67 °F 60 °F 71 °F (1996)
Min Temperature 47 °F 38 °F 26 °F (1997)
Degree Days  
Heating Degree Days 8    
Growing Degree Days 7 (Base 50)    
Moisture  
Dew Point 41 °F    
Average Humidity 58    
Maximum Humidity 92    
Minimum Humidity 37    
Precipitation  
Precipitation 0.00 in - - ()
Sea Level Pressure  
Sea Level Pressure 29.76 in    
Wind  
Wind Speed 7 mph (North)    
Max Wind Speed 14 mph    
Max Gust Speed 21 mph    
Visibility 10 miles    
Events      
Averages and records for this station are not official NWS values.
T = Trace of Precipitation, MM = Missing Value Source: NWS Daily Summary

Daily Weather History Graph

Daily Weather History Graph

Search for Another Location

Airport:

Trip Planner

Search our weather history database for the weather conditions in past years. The results will help you decide how hot, cold, wet, or windy it might be!

Date:

Astronomy

Nov. 15, 2011 Rise Set
Actual Time 7:10 AM CST 5:32 PM CST
Civil Twilight 6:43 AM CST 5:59 PM CST
Nautical Twilight 6:13 AM CST 6:29 PM CST
Astronomical Twilight 5:43 AM CST 6:59 PM CST
Moon 9:43 PM CST (11/15) 11:09 AM CST (11/15)
Length of Visible Light 11h 15m
Length of Day
10h 21m
Waning Gibbous, 79% of the Moon is Illuminated
Nov 15
Waning Gibbous
Nov 18
Last Quarter
Nov 25
New
Dec 2
First Quarter
Dec 10
Full

Hourly Weather History & Observations

Time (CST) Temp. Dew Point Humidity Pressure Visibility Wind Dir Wind Speed Gust Speed Precip Events Conditions
12:55 AM 55.6 °F 46.9 °F 73% 29.73 in 5.0 mi SE 6.9 mph - N/A   Haze
1:55 AM 55.2 °F 47.5 °F 75% 29.72 in 10.0 mi Calm Calm - N/A   Overcast
2:55 AM 55.2 °F 47.1 °F 74% 29.71 in 10.0 mi Calm Calm - N/A   Mostly Cloudy
3:55 AM 53.4 °F 47.1 °F 79% 29.70 in 10.0 mi Calm Calm - N/A   Clear
4:55 AM 52.3 °F 46.0 °F 79% 29.70 in 10.0 mi WNW 5.8 mph - N/A   Clear
5:55 AM 48.9 °F 45.3 °F 87% 29.71 in 10.0 mi NW 4.6 mph - N/A   Clear
7:55 AM 47.7 °F 45.3 °F 92% 29.74 in 10.0 mi NW 8.1 mph - N/A   Clear
8:55 AM 51.8 °F 47.7 °F 86% 29.77 in 10.0 mi SE 3.5 mph - N/A   Clear
9:55 AM 58.1 °F 43.7 °F 59% 29.77 in 10.0 mi NW 11.5 mph - N/A   Clear
10:55 AM 59.9 °F 39.0 °F 46% 29.78 in 10.0 mi NNW 13.8 mph - N/A   Clear
11:55 AM 62.4 °F 39.2 °F 42% 29.77 in 9.0 mi NNW 11.5 mph - N/A   Clear
12:55 PM 65.3 °F 40.3 °F 40% 29.73 in 10.0 mi NNE 4.6 mph - N/A   Clear
1:55 PM 67.1 °F 40.3 °F 38% 29.73 in 10.0 mi NE 4.6 mph - N/A   Clear
2:55 PM 67.8 °F 40.5 °F 37% 29.71 in 10.0 mi NNE 9.2 mph - N/A   Clear
3:55 PM 66.9 °F 41.7 °F 40% 29.71 in 10.0 mi North 13.8 mph - N/A   Clear
4:55 PM 64.2 °F 42.4 °F 45% 29.74 in 10.0 mi North 13.8 mph - N/A   Clear
5:55 PM 59.5 °F 43.3 °F 55% 29.78 in 10.0 mi NNE 10.4 mph - N/A   Clear
6:55 PM 57.7 °F 34.3 °F 41% 29.81 in 10.0 mi NNE 11.5 mph - N/A   Clear
7:55 PM 54.3 °F 34.7 °F 48% 29.82 in 10.0 mi North 10.4 mph - N/A   Clear
8:55 PM 52.9 °F 34.9 °F 50% 29.83 in 10.0 mi North 10.4 mph - N/A   Clear
9:55 PM 51.8 °F 34.5 °F 52% 29.84 in 10.0 mi NNE 9.2 mph - N/A   Clear
10:55 PM 51.6 °F 34.5 °F 52% 29.86 in 10.0 mi NNE 12.7 mph 20.7 mph N/A   Clear
11:55 PM 50.7 °F 33.4 °F 52% 29.86 in 10.0 mi NNE 13.8 mph - N/A   Clear